Location: Unspecified
(0.0000°N, 0.0000°E)
Time: 18:57:01
(UTC+00:00)

Vanguard 1 Rocket - Pass Details

Date: 24 November 2019
Orbit: 650 x 4226 km, 34.3° (Epoch: 09 December)

Event Time Altitude Azimuth Distance (km) Brightness Sun altitude
Rises 00:32:01 0° 269° (W) 5,453 - -66.7°
Reaches altitude 10° 00:39:25 10° 298° (WNW) 3,499 - -65.8°
Maximum altitude 00:41:56 11° 316° (NW) 3,067 - -65.5°
Drops below altitude 10° 00:44:08 10° 335° (NNW) 2,912 - -65.2°
Sets 00:48:36 0° 10° (N) 3,372 - -64.5°
